FW9580 Weather Reports


time (UTC)temp
C
wind
direction
speed
KPH
gust
KPH
rain 1hr
cm
rain 24hr
cm
rain mn
cm
humidity
%
barometer
mb
20260507134534 12 217 3.2 9.7 0.00 2.29 0.48 74 1004.9
20260507133033 11 230 4.8 11.3 0.00 2.29 0.48 74 1005.4
20260507131538 11 277 3.2 12.9 0.00 2.29 0.48 76 1005.4
20260507130033 11 276 9.7 16.1 0.00 2.29 0.48 79 1005.1
20260507124525 10 255 6.4 14.5 0.00 2.29 0.48 82 1005.3
20260507123024 10 240 4.8 12.9 0.00 2.29 0.48 86 1004.8
20260507121520 8 263 4.8 9.7 0.00 2.29 0.48 90 1005.1
20260507120019 8 263 3.2 11.3 0.00 2.29 0.48 90 1005.2
20260507114517 8 259 3.2 9.7 0.00 2.29 0.48 93 1005.7
20260507113023 8 258 4.8 9.7 0.00 2.29 0.48 94 1005.3
20260507111518 7 252 1.6 8.0 0.00 2.29 0.48 94 1005.6
20260507110015 7 267 1.6 8.0 0.00 2.29 0.48 95 1005.4
20260507104514 7 259 6.4 12.9 0.00 2.29 0.48 95 1005.4
20260507103012 7 267 4.8 9.7 0.00 2.29 0.48 95 1004.5
20260507101512 7 261 4.8 9.7 0.00 2.29 0.48 96 1004.9
20260507100015 7 282 8.0 11.3 0.00 2.29 0.48 95 1004.3
20260507094509 7 281 8.0 14.5 0.00 2.29 0.48 96 1004.5
20260507093014 7 290 6.4 17.7 0.00 2.29 0.48 96 1004.2
20260507091508 7 284 6.4 14.5 0.00 2.29 0.48 96 1004.8
20260507090010 7 281 6.4 12.9 0.00 2.29 0.48 96 1004.8
20260507084522 7 279 9.7 20.9 0.00 2.29 0.48 96 1004.5
20260507083005 7 311 12.9 22.5 0.00 2.29 0.48 96 1004.0
20260507081502 7 295 11.3 22.5 0.00 2.29 0.48 96 1003.9
20260507074608 7 260 9.7 16.1 0.03 2.29 0.48 96 1004.1
20260507073057 7 262 8.0 17.7 0.03 2.29 0.48 96 1003.9
20260507071605 8 286 11.3 20.9 0.03 2.29 0.48 96 1003.6
20260507070105 8 279 11.3 16.1 0.03 2.29 0.48 96 1003.8
20260507064556 8 308 11.3 20.9 0.08 2.26 0.46 96 1003.5
20260507063050 8 279 12.9 22.5 0.38 2.26 0.46 96 1003.7
20260507061549 8 288 9.7 17.7 0.46 2.26 0.46 96 1003.6
20260507060049 9 323 9.7 24.1 0.46 2.26 0.46 96 1002.9
20260507054606 9 271 9.7 29.0 0.38 2.18 0.38 96 1003.8
20260507053051 8 172 8.0 16.1 0.05 1.85 0.05 96 1003.6
20260507051547 8 140 6.4 12.9 0.00 1.80 0.00 96 1003.0
20260507050045 8 167 8.0 24.1 0.00 1.80 1.80 96 1003.0
20260507044539 8 161 12.9 30.6 0.00 1.80 1.80 96 1003.1
20260507043035 8 142 19.3 32.2 0.00 1.80 1.80 96 1002.8
20260507041534 8 164 19.3 33.8 0.00 1.80 1.80 96 1002.8
20260507040039 8 150 22.5 38.6 0.00 1.80 1.80 96 1003.0
20260507034531 8 122 22.5 35.4 0.03 1.80 1.80 96 1003.2
20260507033029 8 152 22.5 43.5 0.03 1.80 1.80 96 1003.4
20260507031528 8 173 27.4 46.7 0.03 1.80 1.80 96 1003.5
20260507030024 8 153 19.3 32.2 0.10 1.80 1.80 96 1003.7
20260507024522 8 153 12.9 20.9 0.13 1.78 1.78 96 1004.1
20260507023021 8 156 17.7 32.2 0.18 1.78 1.78 96 1004.3
20260507021523 8 130 20.9 30.6 0.25 1.78 1.78 96 1004.7
20260507020017 8 183 16.1 33.8 0.28 1.70 1.70 95 1004.9
20260507014517 8 144 17.7 37.0 0.28 1.63 1.63 96 1004.8
20260507013013 8 134 17.7 37.0 0.46 1.60 1.60 95 1005.0
20260507011514 8 130 22.5 37.0 0.53 1.52 1.52 95 1005.3
20260507010016 9 121 22.5 37.0 0.66 1.42 1.42 96 1005.5
20260507004508 9 151 20.9 38.6 0.66 1.32 1.32 95 1005.8
20260507003007 9 128 25.7 41.8 0.58 1.14 1.14 95 1005.9
20260507001506 9 155 22.5 33.8 0.51 0.99 0.99 95 1005.9
20260507000007 9 148 20.9 35.4 0.38 0.76 0.76 95 1006.3
20260506234504 9 138 24.1 37.0 0.30 0.66 0.66 95 1006.2
20260506233041 9 129 14.5 37.0 0.23 0.56 0.56 95 1006.4
20260506231537 9 149 14.5 30.6 0.20 0.48 0.48 95 1006.6
20260506230035 8 123 14.5 33.8 0.13 0.38 0.38 95 1006.8
20260506224535 9 132 17.7 29.0 0.15 0.36 0.36 95 1006.7
20260506223034 9 153 16.1 32.2 0.20 0.33 0.33 95 1006.9
20260506221541 10 205 17.7 40.2 0.20 0.28 0.28 95 1006.9
20260506220033 10 120 19.3 30.6 0.20 0.25 0.25 95 1007.1
20260506214530 9 130 17.7 29.0 0.15 0.18 0.18 95 1007.6
20260506213030 9 159 12.9 20.9 0.13 0.13 0.13 94 1007.9
20260506211539 9 145 16.1 25.7 0.08 0.08 0.08 94 1007.8
20260506210034 8 141 19.3 29.0 0.05 0.05 0.05 93 1008.2
20260506204531 9 126 19.3 38.6 0.03 0.03 0.03 92 1008.0
20260506203025 10 138 27.4 40.2 0.00 0.00 0.00 91 1007.8
20260506201534 10 154 16.1 25.7 0.00 0.00 0.00 90 1008.1
20260506200029 10 167 16.1 32.2 0.00 0.00 0.00 90 1007.4
20260506194524 10 159 17.7 30.6 0.00 0.00 0.00 89 1007.7
20260506193033 10 162 17.7 32.2 0.00 0.00 0.00 89 1007.9
20260506191521 10 137 17.7 33.8 0.00 0.00 0.00 89 1007.7
20260506190020 11 144 20.9 33.8 0.00 0.00 0.00 87 1008.1
20260506184517 11 140 16.1 29.0 0.00 0.00 0.00 89 1008.2
20260506183017 10 146 17.7 29.0 0.00 0.00 0.00 89 1008.2
20260506181533 10 160 14.5 33.8 0.00 0.00 0.00 89 1008.3
20260506180014 10 131 16.1 25.7 0.00 0.00 0.00 89 1008.5
20260506174513 10 179 17.7 33.8 0.00 0.00 0.00 89 1008.7
20260506173013 10 139 19.3 35.4 0.00 0.00 0.00 89 1008.9
20260506171515 11 175 19.3 38.6 0.00 0.00 0.00 88 1009.1
20260506170011 11 148 20.9 41.8 0.00 0.00 0.00 88 1009.1
20260506164511 11 165 27.4 49.9 0.00 0.00 0.00 87 1009.2
20260506163015 11 153 27.4 46.7 0.00 0.00 0.00 88 1009.6
20260506161510 11 142 27.4 46.7 0.00 0.00 0.00 87 1009.8
20260506160008 12 134 20.9 37.0 0.00 0.00 0.00 88 1009.8
20260506154505 11 165 19.3 33.8 0.00 0.00 0.00 89 1009.8
20260506153004 11 142 17.7 40.2 0.00 0.00 0.00 88 1009.5
20260506151507 11 133 20.9 33.8 0.00 0.00 0.00 89 1009.4
20260506150010 11 140 20.9 41.8 0.00 0.00 0.00 90 1009.8
20260506144501 10 149 25.7 40.2 0.00 0.00 0.00 91 1010.1
20260506143002 10 140 24.1 38.6 0.00 0.00 0.00 91 1010.3
20260506141501 10 141 22.5 38.6 0.00 0.00 0.00 92 1010.3
20260506140003 10 146 19.3 37.0 0.00 0.00 0.00 92 1010.2